Location: Avon School (historical)
(37.7514°N, 90.2201°W)
Time: 01:18:02
(UTC+00:00)

Tiangong - Visible Passes

Search period start: 13 October 2024 00:00
Search period end: 23 October 2024 00:00
Orbit: 372 x 377 km, 41.5° (Epoch: 12 October)

Date Brightness Start Highest point End Pass type
(mag) Time Alt. Az. Time Alt. Az. Time Alt. Az.
15 Oct 0.6 11:20:11 10° S 11:22:11 16° SE 11:24:13 10° ESE visible
17 Oct -0.3 10:50:24 16° SSW 10:52:07 25° SSE 10:54:45 10° E visible
18 Oct 1.3 09:50:31 10° ESE 09:50:31 10° ESE 09:50:34 10° ESE visible
18 Oct -2.1 11:22:31 13° WSW 11:25:09 76° SSE 11:28:15 10° ENE visible
19 Oct -0.7 10:22:25 34° ESE 10:22:25 34° ESE 10:24:42 10° E visible
20 Oct -2.3 10:54:09 53° W 10:54:45 75° NNW 10:57:51 10° ENE visible
21 Oct 1.2 09:53:45 14° ENE 09:53:45 14° ENE 09:54:14 10° ENE visible
21 Oct -1.5 11:25:43 17° WNW 11:27:50 42° N 11:30:49 10° ENE visible
22 Oct -0.6 10:25:11 33° NE 10:25:11 33° NE 10:27:08 10° ENE visible
